Location: *
(51.4660°N, 0.3360°W)
Time: 12:40:41
(UTC+00:00)

Cosmos 2297 Rocket - Pass Details

Date: 19 September 2019
Orbit: 841 x 842 km, 71.0° (Epoch: 20 October)

Event Time Altitude Azimuth Distance (km) Brightness Sun altitude
Rises 20:41:04 0° 214° (SW) 3,388 5.3 -23.2°
Reaches altitude 10° 20:43:30 10° 216° (SW) 2,457 4.6 -23.5°
Maximum altitude 20:49:09 75° 302° (WNW) 877 2.3 -24.2°
Drops below altitude 10° 20:54:50 10° 28° (NNE) 2,472 4.7 -24.9°
Sets 20:57:18 0° 30° (NNE) 3,410 5.5 -25.2°
